Weather History for Alexandria Esle, LA

Change the Weather History Date:

Sunday, December 1, 2013

  Actual Average Record
Temperature  
Mean Temperature 54 °F -  
Max Temperature 72 °F 63 °F 78 °F (1970)
Min Temperature 37 °F 37 °F 23 °F (1976)
Degree Days  
Heating Degree Days 10    
Growing Degree Days 4 (Base 50)    
Moisture  
Dew Point 44 °F    
Average Humidity 65    
Maximum Humidity 93    
Minimum Humidity 35    
Precipitation  
Precipitation 0.00 in - - ()
Sea Level Pressure  
Sea Level Pressure 30.13 in    
Wind  
Wind Speed 3 mph (SW)    
Max Wind Speed 10 mph    
Max Gust Speed -    
Visibility 10 miles    
Events      
Averages and records for this station are not official NWS values.
T = Trace of Precipitation, MM = Missing Value Source: NWS Daily Summary

Daily Weather History Graph

Daily Weather History Graph

Search for Another Location

Airport:

Trip Planner

Search our weather history database for the weather conditions in past years. The results will help you decide how hot, cold, wet, or windy it might be!

Date:

Astronomy

Dec. 01, 2013 Rise Set
Actual Time 6:50 AM CST 5:05 PM CST
Civil Twilight 6:24 AM CST 5:32 PM CST
Nautical Twilight 5:54 AM CST 6:02 PM CST
Astronomical Twilight 5:24 AM CST 6:31 PM CST
Moon 5:14 AM CST (12/1) 4:12 PM CST (12/1)
Length of Visible Light 11h 08m
Length of Day
10h 15m
Waning Crescent, 2% of the Moon is Illuminated
Dec 1
Waning Crescent
Dec 2
New
Dec 9
First Quarter
Dec 17
Full
Dec 25
Last Quarter

Hourly Weather History & Observations

Time (CST) Temp. Windchill Dew Point Humidity Pressure Visibility Wind Dir Wind Speed Gust Speed Precip Events Conditions
12:53 AM 37.0 °F - 34.0 °F 89% 30.25 in 9.0 mi Calm Calm - N/A   Clear
1:53 AM 37.0 °F 34.5 °F 35.1 °F 93% 30.25 in 8.0 mi West 3.5 mph - N/A   Mostly Cloudy
2:53 AM 42.1 °F 40.2 °F 37.9 °F 85% 30.26 in 10.0 mi WSW 3.5 mph - N/A   Overcast
3:53 AM 44.1 °F - 39.9 °F 85% 30.24 in 10.0 mi Calm Calm - N/A   Overcast
4:53 AM 45.0 °F - 41.0 °F 86% 30.24 in 10.0 mi Calm Calm - N/A   Overcast
5:53 AM 46.0 °F - 41.0 °F 83% 30.25 in 10.0 mi Calm Calm - N/A   Overcast
6:53 AM 46.9 °F - 43.0 °F 86% 30.24 in 10.0 mi ESE 3.5 mph - N/A   Overcast
7:53 AM 51.1 °F - 39.0 °F 63% 30.23 in 10.0 mi Calm Calm - N/A   Clear
8:53 AM 59.0 °F - 34.0 °F 39% 30.22 in 10.0 mi SW 6.9 mph - N/A   Clear
9:53 AM 63.0 °F - 35.1 °F 35% 30.21 in 10.0 mi SSW 5.8 mph - N/A   Clear
10:53 AM 68.0 °F - 39.9 °F 36% 30.18 in 10.0 mi SW 6.9 mph - N/A   Clear
11:53 AM 71.1 °F - 43.0 °F 36% 30.16 in 10.0 mi WSW 8.1 mph - N/A   Overcast
12:53 PM 71.1 °F - 45.0 °F 39% 30.12 in 10.0 mi SSW 6.9 mph - N/A   Overcast
1:53 PM 71.1 °F - 46.0 °F 41% 30.09 in 10.0 mi SW 6.9 mph - N/A   Overcast
2:53 PM 72.0 °F - 46.9 °F 41% 30.06 in 10.0 mi WSW 10.4 mph - N/A   Overcast
3:53 PM 69.1 °F - 48.0 °F 47% 30.05 in 10.0 mi SW 5.8 mph - N/A   Scattered Clouds
4:53 PM 64.9 °F - 50.0 °F 58% 30.05 in 10.0 mi SW 3.5 mph - N/A   Scattered Clouds
5:53 PM 61.0 °F - 51.1 °F 70% 30.04 in 10.0 mi Calm Calm - N/A   Mostly Cloudy
6:53 PM 59.0 °F - 51.1 °F 75% 30.04 in 10.0 mi Calm Calm - N/A   Scattered Clouds
7:53 PM 57.0 °F - 51.1 °F 81% 30.02 in 10.0 mi Calm Calm - N/A   Overcast
8:53 PM 57.0 °F - 52.0 °F 83% 30.01 in 10.0 mi Calm Calm - N/A   Overcast
9:53 PM 57.9 °F - 51.1 °F 78% 30.01 in 10.0 mi Calm Calm - N/A   Overcast
10:53 PM 61.0 °F - 50.0 °F 67% 30.00 in 10.0 mi Calm Calm - N/A   Overcast
11:53 PM 59.0 °F - 51.1 °F 75% 29.99 in 10.0 mi Calm Calm - N/A   Overcast